Location: Unspecified
(0.0000°N, 0.0000°E)
Time: 13:37:32
(UTC+00:00)

Altair - Pass Details

Date: 25 November 2019
Orbit: 1502 x 1682 km, 47.2° (Epoch: 08 December)

Event Time Altitude Azimuth Distance (km) Brightness Sun altitude
Rises 22:47:08 0° 233° (SW) 4,823 10.5 -64.5°
Enters shadow 22:49:58 - 238° (WSW) 3,956 9.9 -64.9°
Reaches altitude 10° 22:50:27 10° 239° (WSW) 3,810 - -65.0°
Maximum altitude 22:59:32 46° 309° (NW) 1,983 - -66.1°
Drops below altitude 10° 23:08:19 10° 21° (NNE) 3,676 - -67.1°
Sets 23:11:30 0° 27° (NNE) 4,641 - -67.4°
